TimeEST,TemperatureF,Dew PointF,Humidity,Sea Level PressureIn,VisibilityMPH,Wind Direction,Wind SpeedMPH,Gust SpeedMPH,PrecipitationIn,Events,Conditions,WindDirDegrees,DateUTC
12:06 AM,19.4,17.6,93,29.89,3.0,SW,5.8,-,0.00,Snow,Light Snow,220,2013-02-03 05:06:00
12:53 AM,19.9,17.1,89,29.95,4.0,WSW,3.5,-,0.00,Snow,Light Snow,250,2013-02-03 05:53:00
1:53 AM,19.0,16.0,88,29.94,6.0,NNE,3.5,-,0.00,Snow,Light Snow,20,2013-02-03 06:53:00
2:22 AM,19.4,15.8,86,29.87,8.0,NNE,4.6,-,0.00,,Overcast,20,2013-02-03 07:22:00
2:53 AM,18.0,16.0,92,29.93,4.0,Calm,Calm,-,0.00,Snow,Light Snow,0,2013-02-03 07:53:00
3:53 AM,18.0,15.1,88,29.91,8.0,Calm,Calm,-,0.00,,Overcast,0,2013-02-03 08:53:00
4:53 AM,18.0,15.1,88,29.89,10.0,Calm,Calm,-,N/A,,Overcast,0,2013-02-03 09:53:00
5:35 AM,19.4,15.8,86,29.82,10.0,Calm,Calm,-,N/A,,Overcast,0,2013-02-03 10:35:00
5:53 AM,19.0,15.1,85,29.88,10.0,Calm,Calm,-,N/A,,Overcast,0,2013-02-03 10:53:00
6:53 AM,19.0,16.0,88,29.87,8.0,South,4.6,-,N/A,,Overcast,190,2013-02-03 11:53:00
7:53 AM,19.0,16.0,88,29.87,4.0,SSW,3.5,-,N/A,,Overcast,200,2013-02-03 12:53:00
8:40 AM,19.4,15.8,86,29.80,2.0,SW,4.6,-,0.00,Snow,Light Snow,220,2013-02-03 13:40:00
8:53 AM,19.0,16.0,88,29.87,1.5,SW,4.6,-,0.00,Snow,Light Snow,220,2013-02-03 13:53:00
9:36 AM,19.4,14.0,80,29.80,2.0,SW,6.9,-,0.00,Snow,Light Snow,220,2013-02-03 14:36:00
9:38 AM,19.4,14.0,80,29.80,3.0,WSW,6.9,-,0.00,Snow,Light Snow,240,2013-02-03 14:38:00
9:53 AM,19.0,10.9,71,29.86,10.0,SW,8.1,-,0.00,,Overcast,230,2013-02-03 14:53:00
10:49 AM,19.4,8.6,63,29.79,10.0,WSW,11.5,29.9,N/A,,Overcast,250,2013-02-03 15:49:00
10:53 AM,19.0,8.1,62,29.86,10.0,WSW,11.5,29.9,N/A,,Overcast,240,2013-02-03 15:53:00
11:05 AM,19.4,8.6,63,29.80,10.0,WSW,9.2,-,N/A,,Overcast,240,2013-02-03 16:05:00
11:53 AM,18.0,9.0,68,29.86,8.0,WSW,10.4,-,0.00,Snow,Light Snow,240,2013-02-03 16:53:00
12:29 PM,17.6,10.4,73,29.78,1.8,WSW,10.4,-,0.00,Snow,Light Snow,250,2013-02-03 17:29:00
12:53 PM,19.0,10.9,71,29.84,2.5,West,10.4,-,0.00,Snow,Light Snow,260,2013-02-03 17:53:00
1:00 PM,19.4,10.4,68,29.77,7.0,WSW,9.2,-,0.00,Snow,Light Snow,240,2013-02-03 18:00:00
1:48 PM,19.4,10.4,68,29.77,9.0,West,9.2,-,0.00,,Overcast,260,2013-02-03 18:48:00
1:53 PM,19.0,10.9,71,29.83,6.0,West,13.8,20.7,0.00,Snow,Light Snow,270,2013-02-03 18:53:00
2:07 PM,17.6,10.4,73,29.77,1.8,West,11.5,20.7,0.00,Snow,Light Snow,260,2013-02-03 19:07:00
2:29 PM,17.6,12.2,79,29.77,0.8,West,11.5,-,0.00,Snow,Light Snow,260,2013-02-03 19:29:00
2:39 PM,17.6,12.2,79,29.78,1.5,West,11.5,-,0.00,Snow,Light Snow,260,2013-02-03 19:39:00
2:50 PM,17.6,10.4,73,29.78,3.0,West,12.7,-,0.00,Snow,Light Snow,270,2013-02-03 19:50:00
3:53 PM,18.0,8.1,65,29.85,10.0,West,6.9,-,0.00,,Overcast,280,2013-02-03 20:53:00
4:53 PM,17.1,9.0,71,29.87,10.0,West,6.9,-,N/A,,Overcast,280,2013-02-03 21:53:00
5:53 PM,16.0,8.1,71,29.89,10.0,West,11.5,-,N/A,,Overcast,260,2013-02-03 22:53:00
6:53 PM,16.0,9.0,74,29.91,7.0,WSW,8.1,-,0.00,Snow,Light Snow,250,2013-02-03 23:53:00
7:53 PM,16.0,10.0,77,29.93,4.0,SW,6.9,-,0.00,Snow,Light Snow,230,2013-02-04 00:53:00
8:53 PM,16.0,10.9,81,29.94,6.0,WSW,10.4,-,0.00,Snow,Light Snow,240,2013-02-04 01:53:00
9:53 PM,16.0,10.9,81,29.95,4.0,WSW,8.1,16.1,0.00,Snow,Light Snow,240,2013-02-04 02:53:00
10:08 PM,15.8,10.4,79,29.88,4.0,WSW,12.7,20.7,0.00,Snow,Light Snow,240,2013-02-04 03:08:00
10:53 PM,16.0,10.9,81,29.95,3.0,SW,10.4,18.4,0.00,Snow,Light Snow,220,2013-02-04 03:53:00
11:17 PM,15.8,10.4,79,29.89,6.0,WSW,9.2,18.4,0.00,Snow,Light Snow,240,2013-02-04 04:17:00
11:37 PM,15.8,10.4,79,29.89,2.5,SW,12.7,19.6,0.00,Snow,Light Snow,230,2013-02-04 04:37:00
11:53 PM,16.0,10.9,81,29.96,1.8,WSW,12.7,18.4,0.00,Snow,Light Snow,240,2013-02-04 04:53:00